Weather History for Eugene, OR

Change the Weather History Date:

Wednesday, October 3, 2012

  Actual Average Record
Temperature  
Mean Temperature 60 °F 57 °F  
Max Temperature 76 °F 70 °F 86 °F (1932)
Min Temperature 43 °F 43 °F 29 °F (1973)
Degree Days  
Heating Degree Days 5 8  
Month to date heating degree days 10 24  
Since 1 July heating degree days 129 212  
Cooling Degree Days 0 0  
Month to date cooling degree days 0 0  
Year to date cooling degree days 230 238  
Growing Degree Days 10 (Base 50)    
Moisture  
Dew Point 31 °F    
Average Humidity 45    
Maximum Humidity 76    
Minimum Humidity 14    
Precipitation  
Precipitation 0.00 in 0.06 in 0.96 in (1950)
Month to date precipitation 0.00 0.17  
Year to date precipitation 30.86 27.47  
Snow  
Snow 0.00 in - - ()
Month to date snowfall 0.0  
Since 1 July snowfall 0.0  
Since 1 September snowfall 0.0  
Snow Depth 0.00 in    
Sea Level Pressure  
Sea Level Pressure 30.11 in    
Wind  
Wind Speed 15 mph (North)    
Max Wind Speed 29 mph    
Max Gust Speed 36 mph    
Visibility 9 miles    
Events      
T = Trace of Precipitation, MM = Missing Value Source: NWS Daily Summary

Daily Weather History Graph

Daily Weather History Graph

Search for Another Location

Airport:

Trip Planner

Search our weather history database for the weather conditions in past years. The results will help you decide how hot, cold, wet, or windy it might be!

Date:

Astronomy

Oct. 03, 2012 Rise Set
Actual Time 7:13 AM PDT 6:48 PM PDT
Civil Twilight 6:44 AM PDT 7:17 PM PDT
Nautical Twilight 6:11 AM PDT 7:51 PM PDT
Astronomical Twilight 5:37 AM PDT 8:24 PM PDT
Moon 8:35 PM PDT (10/3) 10:50 AM PDT (10/3)
Length of Visible Light 12h 32m
Length of Day
11h 35m
Waning Gibbous, 88% of the Moon is Illuminated
Oct 3
Waning Gibbous
Oct 8
Last Quarter
Oct 15
New
Oct 21
First Quarter
Oct 29
Full

Hourly Weather History & Observations

Time (PDT) Temp. Windchill Dew Point Humidity Pressure Visibility Wind Dir Wind Speed Gust Speed Precip Events Conditions
12:54 AM 48.9 °F - 39.9 °F 71% 30.13 in 10.0 mi NNW 6.9 mph - N/A   Clear
1:54 AM 48.0 °F - 39.0 °F 71% 30.15 in 10.0 mi North 12.7 mph - N/A   Clear
2:54 AM 46.9 °F - 39.0 °F 74% 30.16 in 10.0 mi North 8.1 mph - N/A   Clear
3:54 AM 44.1 °F 40.1 °F 37.9 °F 79% 30.15 in 10.0 mi North 6.9 mph - N/A   Clear
4:54 AM 45.0 °F 40.1 °F 37.9 °F 76% 30.15 in 10.0 mi North 9.2 mph - N/A   Clear
5:54 AM 44.1 °F 39.5 °F 37.9 °F 79% 30.16 in 10.0 mi NNE 8.1 mph - N/A   Partly Cloudy
6:54 AM 45.0 °F 39.7 °F 37.9 °F 76% 30.16 in 10.0 mi NNE 10.4 mph - N/A   Scattered Clouds
7:54 AM 45.0 °F 41.2 °F 37.9 °F 76% 30.17 in 10.0 mi NNE 6.9 mph - N/A   Scattered Clouds
8:54 AM 50.0 °F - 37.9 °F 63% 30.17 in 10.0 mi NNE 13.8 mph - N/A   Partly Cloudy
9:54 AM 55.0 °F - 34.0 °F 45% 30.17 in 10.0 mi NNE 17.3 mph - N/A   Clear
10:54 AM 60.1 °F - 30.9 °F 33% 30.15 in 10.0 mi NNE 16.1 mph - N/A   Partly Cloudy
11:54 AM 66.0 °F - 27.0 °F 23% 30.13 in 9.0 mi North 19.6 mph 28.8 mph N/A   Clear
12:54 PM 70.0 °F - 25.0 °F 18% 30.11 in 9.0 mi NNE 23.0 mph 29.9 mph N/A   Clear
1:54 PM 73.0 °F - 24.1 °F 16% 30.08 in 8.0 mi North 23.0 mph 28.8 mph N/A   Clear
2:54 PM 75.0 °F - 24.1 °F 15% 30.06 in 6.0 mi North 23.0 mph 29.9 mph N/A   Haze
3:54 PM 75.0 °F - 23.0 °F 14% 30.05 in 6.0 mi North 24.2 mph 32.2 mph N/A   Haze
4:54 PM 73.9 °F - 21.9 °F 14% 30.04 in 6.0 mi North 23.0 mph 32.2 mph N/A   Widespread Dust
5:54 PM 70.0 °F - 28.0 °F 21% 30.04 in 6.0 mi North 19.6 mph 29.9 mph N/A   Widespread Dust
6:54 PM 64.9 °F - 28.9 °F 26% 30.05 in 8.0 mi North 17.3 mph - N/A   Widespread Dust
7:54 PM 61.0 °F - 28.9 °F 30% 30.05 in 10.0 mi North 16.1 mph - N/A   Clear
8:54 PM 57.9 °F - 28.9 °F 33% 30.05 in 10.0 mi North 16.1 mph - N/A   Clear
9:54 PM 57.0 °F - 28.9 °F 34% 30.06 in 10.0 mi North 13.8 mph - N/A   Clear
10:54 PM 55.0 °F - 28.0 °F 35% 30.08 in 10.0 mi North 13.8 mph - N/A   Clear
11:54 PM 53.1 °F - 28.0 °F 38% 30.08 in 10.0 mi North 10.4 mph - N/A   Clear